1373155231875,0.863073
1373155291875,0.857606
1373155351875,0.862640
1373155411875,0.856263
1373155471875,0.865791
1373155531875,0.863730
1373155591875,0.860573
1373155651875,0.866633
1373155711875,0.863629
1373155771875,0.859461
1373155831875,0.865475
1373155891875,0.858422
1373155951875,0.857265
1373156011875,0.864951
1373156071875,0.859872
1373156131875,0.866453
1373156191875,0.873675
1373156251875,0.865938
1373156311875,0.878382
1373156371875,0.867568
1373156431875,0.861283
1373156491875,0.869355
1373156551875,0.868132
1373156611875,0.877054
1373156671875,0.869177
1373156731875,0.867863
1373156791875,0.869443
1373156851875,0.874981
1373156911875,0.873247
1373156971875,0.875557
1373157031875,0.876090
1373157091875,0.875220
1373157151875,0.869511
1373157211875,0.877449
1373157271875,0.866761
1373157331875,0.880235
1373157391875,0.876069
1373157451875,0.872785
1373157511875,0.873232
1373157571875,0.875586
1373157631875,0.881227
1373157691875,0.878502
1373157751875,0.879850
1373157811875,0.881626
1373157871875,0.884287
1373157931875,0.885484
1373157991875,0.877474
1373158051875,0.878482
1373158111875,0.891066
1373158171875,0.892000
1373158231875,0.889920
1373158291875,0.895933
1373158351875,0.896398
1373158411875,0.894292
1373158471875,0.902840
1373158531875,0.905099
1373158591875,0.924115
1373158651875,0.943893
1373158711875,1.02901
1373158771875,1.06906
1373158831885,1.01515
1373158891885,0.949264
1373158951885,0.934396
1373159011885,0.911829
1373159071885,0.894429
1373159131885,0.902053
1373159191885,0.891140
1373159251885,0.887266
1373159311885,0.885516
1373159371885,0.879509
1373159431885,0.876822
1373159491885,0.879423
1373159551885,0.881148
1373159611885,0.875565
1373159671885,0.884842
1373159731885,0.876807
1373159791885,0.881168
1373159851885,0.875836
1373159911885,0.870069
1373159971885,0.871823
1373160031885,0.867457
1373160091885,0.872516
1373160151885,0.862057
1373160211885,0.875154
1373160271885,0.860784
1373160331885,0.866518
1373160391885,0.869322
1373160451885,0.869423
1373160511885,0.860197
1373160571885,0.861940
1373160631885,0.867810
1373160691885,0.860624
1373160751885,0.862953
1373160811885,0.861672
1373160871885,0.861435
1373160931885,0.863332
1373160991885,0.856008
1373161051885,0.867478
1373161111885,0.860532
1373161171885,0.862373
1373161231885,0.860920
1373161291885,0.856806
1373161351885,0.855100
1373161411885,0.861590
1373161471885,0.859967
1373161531885,0.863611
1373161591885,0.864993
1373161651885,0.857270
1373161711885,0.860454
1373161771885,0.855510
1373161831885,0.856636
1373161891885,0.855208
1373161951885,0.858260
1373162011885,0.857226
1373162071885,0.853062
1373162131885,0.852416
1373162191885,0.862605
1373162251885,0.856037
1373162311885,0.851201
1373162371885,0.856680
1373162431894,0.856859
1373162491894,0.850276
1373162551894,0.857674
1373162611894,0.855119
1373162671894,0.854634
1373162731894,0.857419
1373162791894,0.850823
1373162851894,0.864238
1373162911894,0.860251
1373162971894,0.870869
1373163031894,0.871293
1373163091894,0.878102
1373163151894,0.890348
1373163211894,0.887698
1373163271894,0.883170
1373163331894,0.879219
1373163391894,0.883276
1373163451894,0.882685
1373163511894,0.872961
1373163571894,0.882941
1373163631894,0.876427
1373163691894,0.874626
1373163751894,0.877477
1373163811894,0.875698
1373163871894,0.883086
1373163931894,0.879994
1373163991894,0.874475
1373164051894,0.883696
1373164111894,0.876456
1373164171894,0.880927
1373164231894,0.884480
1373164291894,0.882866
1373164351894,0.880288
1373164411894,0.886530
1373164471894,0.875856
1373164531894,0.879105
1373164591894,0.874958
1373164651894,0.877500
1373164711894,0.869831
1373164771894,0.871204
1373164831894,0.872471
1373164891894,0.874922
1373164951894,0.864473
1373165011894,0.865392
1373165071894,0.865314
1373165131894,0.860756
1373165191894,0.868216
1373165251894,0.867178
1373165311894,0.856263
1373165371894,0.873758
1373165431894,0.855010
1373165491894,0.869543
1373165551894,0.864252
1373165611894,0.855707
1373165671894,0.856702
1373165731894,0.859238
1373165791894,0.857718
1373165851894,0.857232
1373165911894,0.858717
1373165971894,0.855359
1373166031904,0.858350
1373166091904,0.854659
1373166151904,0.857097
1373166211904,0.859150
1373166271904,0.862251
1373166331904,0.865978
1373166391904,0.853415
1373166451904,0.859296
1373166511904,0.859463
1373166571904,0.860056
1373166631904,0.868509
1373166691904,0.871385
1373166751904,0.876138
1373166811904,0.882626
1373166871904,0.889205
1373166931904,0.888684
1373166991904,0.898828
1373167051904,0.908739
1373167111904,0.905484
1373167171904,0.907011
1373167231904,0.914223
1373167291904,0.917356
1373167351904,0.917919
1373167411904,0.914066
1373167471904,0.909236
1373167531904,0.919549
1373167591904,0.907844
1373167651904,0.897839
1373167711904,0.902191
1373167771904,0.899330
1373167831904,0.904174
1373167891904,0.899323
1373167951904,0.890336
1373168011904,0.885461
1373168071904,0.883967
1373168131904,0.888568
1373168191904,0.887162
1373168251904,0.880364
1373168311904,0.888054
1373168371904,0.875682
1373168431904,0.875338
1373168491904,0.878380
1373168551904,0.880647
1373168611904,0.876803
1373168671904,0.875748
1373168731904,0.869798
1373168791904,0.878650
1373168851904,0.867816
1373168911904,0.870093
1373168971904,0.873073
1373169031904,0.864363
1373169091904,0.864730
1373169151904,0.859081
1373169211904,0.859791
1373169271904,0.857045
1373169331904,0.860466
1373169391904,0.862261
1373169451904,0.853730
1373169511904,0.869742
1373169571904,0.863596
1373169631913,0.872494
1373169691913,0.874125
1373169751913,0.882029
1373169811913,0.886760
1373169871913,0.880667
1373169931913,0.880567
1373169991913,0.878039
1373170051913,0.869597
1373170111913,0.871602
1373170171913,0.857612
1373170231913,0.856766
1373170291913,0.849981
1373170351913,0.857734
1373170411913,0.855000
1373170471913,0.848040
1373170531913,0.845101
1373170591913,0.842249
1373170651913,0.848434
1373170711913,0.851204
1373170771913,0.845252
1373170831913,0.839628
1373170891913,0.851283
1373170951913,0.846937
1373171011913,0.846461
1373171071913,0.841078
1373171131913,0.857222
1373171191913,0.834318
1373171251913,0.855288
1373171311913,0.843917
1373171371913,0.849460
1373171431913,0.843570
1373171491913,0.843755
1373171551913,0.853634
1373171611913,0.842500
1373171671913,0.844237
1373171731913,0.845129
1373171791913,0.846133
1373171851913,0.849352
1373171911913,0.861554
1373171971913,0.852475
1373172031913,0.846990
1373172091913,0.838186
1373172151913,0.840416
1373172211913,0.841509
1373172271913,0.837000
1373172331913,0.849694
1373172391913,0.838526
1373172451913,0.846442
1373172511913,0.839126
1373172571913,0.835614
1373172631913,0.841731
1373172691913,0.841052
1373172751913,0.843383
1373172811913,0.843586
1373172871913,0.840954
1373172931913,0.846619
1373172991913,0.834410
1373173051913,0.841881
1373173111913,0.844766
1373173171913,0.843759
1373173231922,0.851240
1373173291922,0.834987
1373173351922,0.841384
1373173411922,0.844987
1373173471922,0.840691
1373173531922,0.838218
1373173591922,0.846713
1373173651922,0.840113
1373173711922,0.842701
1373173771922,0.844303
1373173831922,0.841227
1373173891922,0.838562
1373173951922,0.853268
1373174011922,0.839533
1373174071922,0.845299
1373174131922,0.840965
1373174191922,0.839789
1373174251922,0.843698
1373174311922,0.845256
1373174371922,0.839745
1373174431922,0.838928
1373174491922,0.833381
1373174551922,0.842263
1373174611922,0.842691
1373174671922,0.839885
1373174731922,0.838407
1373174791922,0.843446
1373174851922,0.838452
1373174911922,0.837085
1373174971922,0.840884
1373175031922,0.843127
1373175091922,0.839728
1373175151922,0.846618
1373175211922,0.847518
1373175271922,0.832859
1373175331922,0.834697
1373175391922,0.840788
1373175451922,0.839906
1373175511922,0.845611
1373175571922,0.837673
1373175631922,0.850533
1373175691922,0.840347
1373175751922,0.841295
1373175811922,0.837592
1373175871922,0.833517
1373175931922,0.846472
1373175991922,0.832158
1373176051922,0.833893
1373176111922,0.830255
1373176171922,0.842752
1373176231922,0.842752
1373176291922,0.840504
1373176351922,0.833613
1373176411922,0.837805
1373176471922,0.834023
1373176531922,0.834436
1373176591922,0.843829
1373176651922,0.842213
1373176711922,0.841876
1373176771922,0.839234
1373176831931,0.847987
1373176891931,0.843995
1373176951931,0.837680
1373177011931,0.845312
1373177071931,0.841570
1373177131931,0.837001
1373177191931,0.841348
1373177251931,0.841071
1373177311931,0.838840
1373177371931,0.829186
1373177431931,0.840921
1373177491931,0.837611
1373177551931,0.847986
1373177611931,0.836650
1373177671931,0.837663
1373177731931,0.835341
1373177791931,0.836499
1373177851931,0.838287
1373177911931,0.829420
1373177971931,0.835743
1373178031931,0.838922
1373178091931,0.840124
1373178151931,0.838889
1373178211931,0.834388
1373178271931,0.838665
1373178331931,0.835577
1373178391931,0.829015
1373178451931,0.841699
1373178511931,0.839514
1373178571931,0.833995
1373178631931,0.839288
1373178691931,0.828242
1373178751931,0.837236
1373178811931,0.830089
1373178871931,0.835790
1373178931931,0.833080
1373178991931,0.833772
1373179051931,0.830851
1373179111931,0.830359
1373179171931,0.837939
1373179231931,0.837217
1373179291931,0.835399
1373179351931,0.837273
1373179411931,0.830101
1373179471931,0.832313
1373179531931,0.838367
1373179591931,0.839514
1373179651931,0.835935
1373179711931,0.829132
1373179771931,0.835304
1373179831931,0.844848
1373179891931,0.842491
1373179951931,0.837370
1373180011931,0.834364
1373180071931,0.841633
1373180131931,0.842047
1373180191931,0.841171
1373180251931,0.836955
1373180311931,0.841539
1373180371931,0.843605
1373184031949,0.832427
1373184091949,0.840886
1373184151949,0.839281
1373184211949,0.837125
1373184271949,0.840045
1373184331949,0.841926
1373184391949,0.845338
1373184451949,0.838498
1373184511949,0.837345
1373184571949,0.841781
1373184631949,0.843291
1373184691949,0.844537
1373184751949,0.845805
1373184811949,0.839020
1373184871949,0.840100
1373184931949,0.843647
1373184991949,0.843007
1373185051949,0.848078
1373185111949,0.845873
1373185171949,0.839650
1373185231949,0.859856
1373185291949,0.845533
1373185351949,0.848814
1373185411949,0.842912
1373185471949,0.844776
1373185531949,0.846529
1373185591949,0.843270
1373185651949,0.839560
1373185711949,0.840914
1373185771949,0.834828
1373185831949,0.826731
1373185891949,0.840034
1373185951949,0.835124
1373186011949,0.839815
1373186071949,0.839027
1373186131949,0.841665
1373186191949,0.835649
1373186251949,0.839619
1373186311949,0.834090
1373186371949,0.847925
1373186431949,0.846912
1373186491949,0.838611
1373186551949,0.836612
1373186611949,0.837117
1373186671949,0.838039
1373186731949,0.844143
1373186791949,0.844455
1373186851949,0.842300
1373186911949,0.849332
1373186971949,0.840631
1373187031949,0.847286
1373187091949,0.845050
1373187151949,0.848455
1373187211949,0.842005
1373187271949,0.845395
1373187331949,0.847023
1373187391949,0.838183
1373187451949,0.839617
1373187511949,0.839367
1373187571949,0.843033
1373187631958,0.840629
1373187691958,0.836169
1373187751958,0.838468
1373187811958,0.834774
1373187871958,0.840828
1373187931958,0.836749
1373187991958,0.833805
1373188051958,0.831934
1373188111958,0.834748
1373188171958,0.838493
1373188231958,0.839733
1373188291958,0.835544
1373188351958,0.837101
1373188411958,0.839981
1373188471958,0.838577
1373188531958,0.834580
1373188591958,0.838105
1373188651958,0.836689
1373188711958,0.844679
1373188771958,0.840158
1373188831958,0.838757
1373188891958,0.834453
1373188951958,0.838194
1373189011958,0.836729
1373189071958,0.834450
1373189131958,0.836208
1373189191958,0.832901
1373189251958,0.843116
1373189311958,0.845596
1373189371958,0.843758
1373189431958,0.840665
1373189491958,0.842573
1373189551958,0.848375
1373189611958,0.847642
1373189671958,0.848694
1373189731958,0.841324
1373189791958,0.846448
1373189851958,0.853867
1373189911958,0.847992
1373189971958,0.849310
1373190031958,0.852867
1373190091958,0.854977
1373190151958,0.845902
1373190211958,0.847725
1373190271958,0.849932
1373190331958,0.850056
1373190391958,0.847511
1373190451958,0.847364
1373190511958,0.848830
1373190571958,0.844404
1373190631958,0.841676
1373190691958,0.835595
1373190751958,0.834022
1373190811958,0.842304
1373190871958,0.844454
1373190931958,0.842368
1373190991958,0.840731
1373191051958,0.838649
1373191111958,0.840488
1373191171958,0.837504
1373191231967,0.842232
1373191291967,0.837275
1373191351967,0.837325
1373191411967,0.833432
1373191471967,0.844135
1373191531967,0.841624
1373191591967,0.838522
1373191651967,0.836760
1373191711967,0.840791
1373191771967,0.834723
1373191831967,0.834169
1373191891967,0.836669
1373191951967,0.836760
1373192011967,0.836148
1373192071967,0.835773
1373192131967,0.842036
1373192191967,0.842808
1373192251967,0.839993
1373192311967,0.839806
1373192371967,0.834622
1373192431967,0.831679
1373192491967,0.836610
1373192551967,0.843075
1373192611967,0.840745
1373192671967,0.840055
1373192731967,0.835203
1373192791967,0.832048
1373192851967,0.830207
1373192911967,0.837622
1373192971967,0.831624
1373193031967,0.836416
1373193091967,0.844958
1373193151967,0.833302
1373193211967,0.836750
1373193271967,0.844613
1373193331967,0.840376
1373193391967,0.839629
1373193451967,0.841006
1373193511967,0.842302
1373193571967,0.835229
1373193631967,0.839252
1373193691967,0.837092
1373193751967,0.832214
1373193811967,0.834972
1373193871967,0.828581
1373193931967,0.844849
1373193991967,0.835671
1373194051967,0.848402
1373194111967,0.845669
1373194171967,0.842950
1373194231967,0.840706
1373194291967,0.844821
1373194351967,0.838647
1373194411967,0.838702
1373194471967,0.835327
1373194531967,0.839171
1373194591967,0.832817
1373194651967,0.833621
1373194711967,0.830879
1373194771967,0.832869
1373198431985,0.834498
1373198491985,0.836497
1373198551985,0.837501
1373198611985,0.828440
1373198671985,0.842505
1373198731985,0.844161
1373198791985,0.840964
1373198851985,0.845578
1373198911985,0.842661
1373198971985,0.848618
1373199031985,0.854925
1373199091985,0.857596
1373199151985,0.870409
1373199211985,0.878076
1373199271985,0.881124
1373199331985,0.890311
1373199391985,0.895401
1373199451985,0.902300
1373199511985,0.912524
1373199571985,0.903591
1373199631985,0.905914
1373199691985,0.899376
1373199751985,0.890905
1373199811985,0.886778
1373199871985,0.875430
1373199931985,0.881611
1373199991985,0.864720
1373200051985,0.866065
1373200111985,0.861843
1373200171985,0.854460
1373200231985,0.862483
1373200291985,0.855158
1373200351985,0.850837
1373200411985,0.845602
1373200471985,0.844389
1373200531985,0.844282
1373200591985,0.835258
1373200651985,0.845454
1373200711985,0.836444
1373200771985,0.836244
1373200831985,0.833748
1373200891985,0.834521
1373200951985,0.836061
1373201011985,0.831652
1373201071985,0.828104
1373201131985,0.836625
1373201191985,0.832688
1373201251985,0.833704
1373201311985,0.829253
1373201371985,0.835880
1373201431985,0.835062
1373201491985,0.833922
1373201551985,0.833838
1373201611985,0.825456
1373201671985,0.832468
1373201731985,0.826585
1373201791985,0.836004
1373201851985,0.837040
1373201911985,0.832995
1373201971985,0.830239
1373202031994,0.830721
1373202091994,0.830006
1373202151994,0.835881
1373202211994,0.833856
1373202271994,0.835480
1373202331994,0.836762
1373202391994,0.834307
1373202451994,0.833132
1373202511994,0.829917
1373202571994,0.846936
1373202631994,0.830306
1373202691994,0.840832
1373202751994,0.836001
1373202811994,0.839506
1373202871994,0.842874
1373202931994,0.835769
1373202991994,0.839199
1373203051994,0.841753
1373203111994,0.833861
1373203171994,0.836305
1373203231994,0.832702
1373203291994,0.832243
1373203351994,0.856333
1373203411994,0.848512
1373204551994,0.874613
1373204611994,0.936471
1373204671994,0.849048
1373204731994,0.846678
1373204791994,0.845970
1373204851994,0.850365
1373204911994,0.843929
1373204971994,0.850551
1373205031994,0.848891
1373205091994,0.847621
1373205151994,0.847315
1373205211994,0.845539
1373205271994,0.846087
1373205331994,0.840347
1373205391994,0.835607
1373205451994,0.842920
1373205511994,0.845697
1373205571994,0.835721
1373205632003,0.837677
1373205692003,0.841038
1373205752003,0.845726
1373205812003,0.832176
1373205872003,0.831818
1373205932003,0.842257
1373205992003,0.834240
1373206052003,0.835909
1373206112003,0.840881
1373206172003,0.830722
1373206232003,0.834454
1373206292003,0.829798
1373206352003,0.831659
1373206412003,0.834725
1373206472003,0.830291
1373206532003,0.827746
1373206592003,0.829983
1373206652003,0.834125
1373206712003,0.832269
1373206772003,0.829042
1373206832003,0.825229
1373206892003,0.828863
1373206952003,0.835477
1373207012003,0.824717
1373207072003,0.830463
1373207132003,0.832516
1373207192003,0.825818
1373207252003,0.835162
1373207312003,0.828912
1373207372003,0.826337
1373207432003,0.831402
1373207492003,0.830175
1373207552003,0.827296
1373207612003,0.836842
1373207672003,0.833323
1373207732003,0.838565
1373207792003,0.835562
1373207852003,0.837714
1373207912003,0.834213
1373207972003,0.832933
1373208032003,0.831035
1373208092003,0.834156
1373208152003,0.837184
1373208212003,0.837314
1373208272003,0.834652
1373208332003,0.842388
1373208392003,0.832543
1373208452003,0.831579
1373208512003,0.830839
1373208572003,0.832595
1373208632003,0.838569
1373208692003,0.834479
1373208752003,0.835378
1373208812003,0.835141
1373208872003,0.829172
1373208932003,0.839494
1373208992003,0.839341
1373209052003,0.839705
1373209112003,0.842774
1373209172003,0.834532
1373209232013,0.847043
1373209292013,0.845949
1373209352013,0.845098
1373209412013,0.843736
1373209472013,0.846262
1373209532013,0.848239
1373209592013,0.853304
1373209652013,0.846653
1373209712013,0.845551
1373209772013,0.850176
1373209832013,0.855570
1373209892013,0.851638
1373209952013,0.838039
1373210012013,0.849241
1373210072013,0.843119
1373210132013,0.845406
1373210192013,0.839067
1373210252013,0.841888
1373210312013,0.842045
1373210372013,0.841746
1373210432013,0.847833
1373210492013,0.846654
1373210552013,0.855458
1373210612013,0.847275
1373210672013,0.848932
1373210732013,0.846266
1373210792013,0.836612
1373210852013,0.835624
1373210912013,0.848503
1373210972013,0.847963
1373211032013,0.849104
1373211092013,0.851039
1373211152013,0.845962
1373211212013,0.850992
1373211272013,0.846603
1373211332013,0.844040
1373211392013,0.841454
1373211452013,0.847450
1373211512013,0.839707
1373211572013,0.839700
1373211632013,0.838380
1373211692013,0.843207
1373211752013,0.846623
1373211812013,0.845189
1373211872013,0.839282
1373211932013,0.836890
1373211992013,0.840567
1373212052013,0.843979
1373212112013,0.849003
1373212172013,0.850039
1373212232013,0.846020
1373212292013,0.850059
1373212352013,0.850421
1373212412013,0.853628
1373212472013,0.850966
1373212532013,0.845608
1373212592013,0.847735
1373212652013,0.846937
1373212712013,0.838950
1373212772013,0.841476
1373216432033,0.840936
1373216492033,0.840879
1373216552033,0.843824
1373216612033,0.841201
1373216672033,0.844433
1373216732033,0.846104
1373216792033,0.841803
1373216852033,0.838237
1373216912033,0.842631
1373216972033,0.848092
1373217032033,0.844149
1373217092033,0.839036
1373217152033,0.847355
1373217212033,0.842296
1373217272033,0.838167
1373217332033,0.836375
1373217392033,0.834915
1373217452033,0.842380
1373217512033,0.836627
1373217572033,0.847690
1373217632033,0.839086
1373217692033,0.843695
1373217752033,0.836334
1373217812033,0.851019
1373217872033,0.844838
1373217932033,0.843776
1373217992033,0.844610
1373218052033,0.857076
1373218112033,0.840722
1373218172033,0.843341
1373218232033,0.845985
1373218292033,0.841197
1373218352033,0.850383
1373218412033,0.839604
1373218472033,0.841368
1373218532033,0.837805
1373218592033,0.842027
1373218652033,0.841025
1373218712033,0.845314
1373218772033,0.851961
1373218832033,0.839253
1373218892033,0.842022
1373218952033,0.846939
1373219012033,0.842127
1373219072033,0.845055
1373219132033,0.841621
1373219192033,0.845226
1373219252033,0.836066
1373219312033,0.840537
1373219372033,0.834524
1373219432033,0.838791
1373219492033,0.838636
1373219552033,0.842886
1373219612033,0.838300
1373219672033,0.831091
1373219732033,0.831764
1373219792033,0.836314
1373219852033,0.833604
1373219912033,0.831936
1373219972033,0.836957
1373220032043,0.828690
1373220092043,0.835708
1373220152043,0.837146
1373220212043,0.837868
1373220272043,0.839427
1373220332043,0.839565
1373220392043,0.832951
1373220452043,0.833694
1373220512043,0.833763
1373220572043,0.829080
1373220632043,0.832734
1373220692043,0.828547
1373220752043,0.835721
1373220812043,0.828663
1373220872043,0.836789
1373220932043,0.829712
1373220992043,0.829476
1373221052043,0.835384
1373221112043,0.824716
1373221172043,0.830020
1373221232043,0.831318
1373221292043,0.835408
1373221352043,0.832776
1373221412043,0.831271
1373221472043,0.833544
1373221532043,0.833760
1373221592043,0.826670
1373221652043,0.829165
1373221712043,0.826932
1373221772043,0.833209
1373221832043,0.830901
1373221892043,0.829834
1373221952043,0.827516
1373222012043,0.834470
1373222072043,0.827633
1373222132043,0.833072
1373222192043,0.833824
1373222252043,0.833711
1373222312043,0.837534
1373222372043,0.826167
1373222432043,0.826688
1373222492043,0.836024
1373222552043,0.831429
1373222612043,0.834221
1373222672043,0.833996
1373222732043,0.836649
1373222792043,0.832644
1373222852043,0.832909
1373222912043,0.826501
1373222972043,0.829154
1373223032043,0.835722
1373223092043,0.829473
1373223152043,0.833679
1373223212043,0.834158
1373223272043,0.842542
1373223332043,0.835343
1373223392043,0.838289
1373223452043,0.841641
1373223512043,0.842238
1373223572043,0.837615
1373223632054,0.839830
1373223692054,0.837390
1373223752054,0.831092
1373223812054,0.840962
1373223872054,0.833650
1373223932054,0.832166
1373223992054,0.840412
1373224052054,0.834794
1373224112054,0.837302
1373224172054,0.842448
1373224232054,0.834747
1373224292054,0.837981
1373224352054,0.835237
1373224412054,0.837283
1373224472054,0.835738
1373224532054,0.831012
1373224592054,0.832895
1373224652054,0.830263
1373224712054,0.838998
1373224772054,0.837953
1373224832054,0.830442
1373224892054,0.844219
1373224952054,0.831411
1373225012054,0.834874
1373225072054,0.846003
1373225132054,0.836494
1373225192054,0.841514
1373225252054,0.834515
1373225312054,0.843564
1373225372054,0.838328
1373225432054,0.841479
1373225492054,0.840251
1373225552054,0.840271
1373225612054,0.836420
1373225672054,0.840850
1373225732054,0.839402
1373225792054,0.838963
1373225852054,0.839400
1373225912054,0.846160
1373225972054,0.829092
1373226032054,0.839222
1373226092054,0.845966
1373226152054,0.843812
1373226212054,0.841638
1373226272054,0.843028
1373226332054,0.846418
1373226392054,0.835190
1373226452054,0.840197
1373226512054,0.843407
1373226572054,0.844702
1373226632054,0.838068
1373226692054,0.842561
1373226752054,0.847935
1373226812054,0.846025
1373226872054,0.848685
1373226932054,0.842879
1373226992054,0.845543
1373227052054,0.838011
1373227112054,0.847624
1373227172054,0.842503
1373227232064,0.840056
1373227292065,0.837325
1373227352065,0.845532
1373227412065,0.841140
1373227472065,0.845444
1373227532064,0.841513
1373227592064,0.847813
1373227652065,0.842822
1373227712065,0.849311
1373227772065,0.843254
1373227832065,0.851851
1373227892065,0.843652
1373227952065,0.849664
1373228012065,0.854825
1373228072065,0.847138
1373228132065,0.850961
1373228192065,0.846459
1373228252064,0.849165
1373228312064,0.851763
1373228372064,0.855329
1373228432064,0.864410
1373228492064,0.870620
1373228552064,0.860776
1373228612065,0.852570
1373228672065,0.853058
1373228732065,0.851193
1373228792065,0.846091
1373228852065,0.849148
1373228912064,0.845161
1373228972065,0.852323
1373229032065,0.851374
1373229092065,0.856540
1373229152065,0.856726
1373229212065,0.859129
1373229272065,0.860093
1373229332065,0.856641
1373229392065,0.864140
1373229452065,0.867953
1373229512065,0.855879
1373229572064,0.866169
1373229632064,0.868369